Volver al catálogo

STARLINK-37711

ActivoComunicacionesVLEO
NORAD 100002·PAYLOAD·🇺🇸 United States

Lanzado Jul 14, 2026 desde Vandenberg Space Force Base

Loading…

Próximos Pases (próximas 24 horas)

TLE

ActualizadoSource: Space-Track

Época: Sep 14, 2026, 21:51 UTC

1 A0002U 26160B   26257.91060250  .00244831  00000-0  14218-2 0  9992
2 A0002  70.0023 210.6599 0004533 277.3415  82.7270 15.77656425 11110

Sigue STARLINK-37711 en tiempo real con AllMySat

Download on the App Store